Tacoma, WA

10:17 AM PDT on April 24, 2017 (GMT -0700)
McChord Air Force Base

Weather History for KTCM - April, 2013

Change the Weather History Date:

Saturday, April 27, 2013

  Actual Average Record
Temperature  
Mean Temperature 52 °F -  
Max Temperature 56 °F 58 °F 82 °F (1987)
Min Temperature 49 °F 38 °F 32 °F (1958)
Degree Days  
Heating Degree Days 12    
Growing Degree Days 2 (Base 50)    
Moisture  
Dew Point 47 °F    
Average Humidity 82    
Maximum Humidity 100    
Minimum Humidity 52    
Precipitation  
Precipitation 0.03 in - - ()
Sea Level Pressure  
Sea Level Pressure 30.23 in    
Wind  
Wind Speed 9 mph (SSW)    
Max Wind Speed 16 mph    
Max Gust Speed -    
Visibility 10 miles    
Events Rain    
Averages and records for this station are not official NWS values.
T = Trace of Precipitation, MM = Missing Value Source: NWS Daily Summary

Daily Weather History Graph

Daily Weather History Graph

Search for Another Location

Airport or City:

Trip Planner

Search our weather history database for the weather conditions in past years. The results will help you decide how hot, cold, wet, or windy it might be!

Date:

Astronomy

Apr. 27, 2013 Rise Set
Actual Time 5:59 AM PDT 8:15 PM PDT
Civil Twilight 5:26 AM PDT 8:49 PM PDT
Nautical Twilight 4:44 AM PDT 9:31 PM PDT
Astronomical Twilight 3:57 AM PDT 10:18 PM PDT
Moon 10:58 PM PDT (4/27) 7:17 AM PDT (4/27)
Length of Visible Light 15h 23m
Length of Day
14h 15m
Waning Gibbous, 95% of the Moon is Illuminated
Apr 27
Waning Gibbous
May 2
Last Quarter
May 9
New
May 17
First Quarter
May 24
Full

Hourly Weather History & Observations

Time (PDT) Temp. Dew Point Humidity Pressure Visibility Wind Dir Wind Speed Gust Speed Precip Events Conditions
12:58 AM 49.6 °F 37.0 °F 62% 30.24 in 10.0 mi South 4.6 mph - N/A   Mostly Cloudy
1:58 AM 49.8 °F 37.0 °F 61% 30.23 in 10.0 mi SSW 3.5 mph - N/A   Mostly Cloudy
2:58 AM 50.4 °F 36.7 °F 59% 30.22 in 10.0 mi South 4.6 mph - N/A   Overcast
3:58 AM 50.9 °F 37.9 °F 61% 30.20 in 10.0 mi South 4.6 mph - N/A   Mostly Cloudy
4:58 AM 51.4 °F 37.0 °F 58% 30.21 in 10.0 mi Calm Calm - N/A   Overcast
5:58 AM 50.7 °F 37.6 °F 61% 30.21 in 10.0 mi SW 5.8 mph - N/A   Overcast
6:58 AM 53.8 °F 37.0 °F 53% 30.20 in 10.0 mi SSW 9.2 mph - N/A   Overcast
7:58 AM 54.5 °F 37.2 °F 52% 30.21 in 10.0 mi SSW 13.8 mph - N/A   Overcast
8:58 AM 55.0 °F 37.9 °F 53% 30.22 in 10.0 mi SW 10.4 mph - N/A   Overcast
9:58 AM 56.3 °F 38.8 °F 52% 30.25 in 10.0 mi West 11.5 mph - N/A   Overcast
10:58 AM 54.3 °F 41.4 °F 62% 30.26 in 10.0 mi SW 5.8 mph - N/A   Overcast
11:58 AM 55.8 °F 40.6 °F 57% 30.26 in 10.0 mi SW 8.1 mph - N/A   Overcast
12:58 PM 55.8 °F 41.7 °F 59% 30.26 in 10.0 mi SSW 10.4 mph - N/A   Overcast
1:46 PM 55.4 °F 44.6 °F 67% 30.24 in 10.0 mi SW 9.2 mph - N/A Rain Light Rain
1:58 PM 56.3 °F 45.0 °F 66% 30.26 in 10.0 mi SW 11.5 mph - 0.00 in   Light Drizzle
2:14 PM 55.4 °F 46.4 °F 72% 30.24 in 9.0 mi SW 9.2 mph - N/A   Overcast
2:16 PM 55.4 °F 48.2 °F 77% 30.24 in 9.0 mi SW 9.2 mph - N/A Rain Light Rain
2:58 PM 55.0 °F 49.8 °F 83% 30.27 in 10.0 mi SW 12.7 mph - 0.01 in Rain Light Rain
3:37 PM 53.6 °F 50.0 °F 88% 30.24 in 10.0 mi SSW 11.5 mph - N/A   Overcast
3:58 PM 54.0 °F 50.2 °F 87% 30.26 in 10.0 mi SSW 9.2 mph - 0.01 in   Overcast
4:58 PM 55.4 °F 50.0 °F 82% 30.25 in 10.0 mi SSW 13.8 mph - N/A   Overcast
5:03 PM 55.4 °F 50.0 °F 82% 30.23 in 10.0 mi SSW 13.8 mph - N/A   Overcast
5:08 PM 55.4 °F 50.0 °F 82% 30.23 in 10.0 mi SW 15.0 mph - N/A   Overcast
5:13 PM 55.4 °F 50.0 °F 82% 30.23 in 10.0 mi SSW 16.1 mph - N/A   Overcast
5:28 PM 55.4 °F 50.0 °F 82% 30.23 in 10.0 mi SSW 12.7 mph - N/A   Overcast
5:48 PM 55.4 °F 50.0 °F 82% 30.22 in 10.0 mi SSW 11.5 mph - N/A   Overcast
5:53 PM 55.4 °F 48.2 °F 77% 30.23 in 10.0 mi SSW 11.5 mph - N/A   Overcast
5:58 PM 54.5 °F 48.6 °F 80% 30.25 in 10.0 mi SSW 15.0 mph - N/A   Overcast
6:03 PM 53.6 °F 48.2 °F 82% 30.22 in 10.0 mi SSW 13.8 mph - N/A   Overcast
6:08 PM 53.6 °F 48.2 °F 82% 30.22 in 10.0 mi South 12.7 mph - N/A   Overcast
6:09 PM 53.6 °F 48.2 °F 82% 30.22 in 10.0 mi South 13.8 mph - N/A Rain Light Rain
6:17 PM 53.6 °F 50.0 °F 88% 30.23 in 10.0 mi SSW 11.5 mph - N/A   Overcast
6:22 PM 53.6 °F 48.2 °F 82% 30.23 in 10.0 mi South 10.4 mph - N/A   Overcast
6:27 PM 53.6 °F 50.0 °F 88% 30.23 in 10.0 mi SSW 9.2 mph - N/A   Overcast
6:28 PM 53.6 °F 50.0 °F 88% 30.23 in 10.0 mi SSW 10.4 mph - N/A   Light Drizzle
6:33 PM 53.6 °F 50.0 °F 88% 30.23 in 7.0 mi SSW 12.7 mph - N/A Rain Light Rain
6:38 PM 53.6 °F 50.0 °F 88% 30.23 in 6.0 mi South 11.5 mph - N/A Rain Light Rain
6:43 PM 51.8 °F 50.0 °F 94% 30.23 in 8.0 mi SSW 9.2 mph - N/A Rain Light Rain
6:45 PM 51.8 °F 50.0 °F 94% 30.23 in 9.0 mi SSW 8.1 mph - N/A   Overcast
6:55 PM 51.8 °F 50.0 °F 94% 30.23 in 10.0 mi SSW 9.2 mph - N/A   Overcast
6:58 PM 52.3 °F 50.2 °F 92% 30.25 in 10.0 mi SSW 10.4 mph - 0.00 in   Overcast
7:02 PM 51.8 °F 50.0 °F 94% 30.22 in 7.0 mi SSW 12.7 mph - N/A Rain Light Rain
7:03 PM 51.8 °F 50.0 °F 94% 30.22 in 7.0 mi SSW 11.5 mph - N/A Rain Light Rain
7:08 PM 51.8 °F 50.0 °F 94% 30.22 in 6.0 mi SSW 12.7 mph - N/A Rain Light Rain
7:21 PM 51.8 °F 51.8 °F 100% 30.23 in 9.0 mi SSW 8.1 mph - N/A   Overcast
7:31 PM 51.8 °F 51.8 °F 100% 30.22 in 10.0 mi SSW 10.4 mph - N/A   Overcast
7:58 PM 51.6 °F 50.7 °F 97% 30.25 in 10.0 mi South 10.4 mph - 0.01 in   Overcast
8:58 PM 50.7 °F 50.4 °F 99% 30.25 in 10.0 mi South 9.2 mph - N/A   Overcast
9:28 PM 50.0 °F 50.0 °F 100% 30.24 in 10.0 mi SSW 9.2 mph - N/A   Mostly Cloudy
9:33 PM 50.0 °F 50.0 °F 100% 30.24 in 10.0 mi SSW 9.2 mph - N/A   Overcast
9:43 PM 50.0 °F 50.0 °F 100% 30.24 in 10.0 mi South 8.1 mph - N/A   Overcast
9:48 PM 50.0 °F 50.0 °F 100% 30.24 in 10.0 mi SSW 8.1 mph - N/A   Overcast
9:58 PM 50.5 °F 49.6 °F 97% 30.26 in 10.0 mi South 9.2 mph - N/A   Overcast
10:58 PM 50.4 °F 49.5 °F 97% 30.26 in 10.0 mi SSW 10.4 mph - N/A   Overcast
11:13 PM 50.0 °F 50.0 °F 100% 30.23 in 10.0 mi South 8.1 mph - N/A   Overcast
11:38 PM 50.0 °F 50.0 °F 100% 30.23 in 10.0 mi South 8.1 mph - N/A   Overcast
11:53 PM 50.0 °F 48.2 °F 94% 30.22 in 10.0 mi South 9.2 mph - N/A   Overcast
11:58 PM 49.8 °F 48.9 °F 97% 30.24 in 10.0 mi South 8.1 mph - N/A   Overcast